Starlink 30547

operational
NORAD ID: 58044 Int'l Des: 2023-156 Owner: SPXS Country: US Constellation: starlink
LEOCIRCULAR

Starlink 30547について

説明を読み込み中...

リアルタイム位置

3D地球を読み込み中...

次回通過

高度履歴

Altitude vs Time

uPlot chart will show altitude changes over time

軌道要素

1 58044U 23156S 25304.70491056 -.00003476 00000-0 -10538-3 0 9996
2 58044 53.1586 47.3313 0001235 75.2242 284.8896 15.30176729115288
Epoch: Oct 31, 2025 • Age: 21 hours

現在のステータス

高度 480.4 km
速度 7.63 km/s
衛星直下点 49.96°N, 86.71°W
打ち上げ日 Oct 9, 2023
運用期間 2 years
タイプ internet

技術仕様

分類 Payload
質量 730.00 kg
乾燥質量 700.00 kg
総質量 730.00 kg
長さ 0.30 m
直径 4.10 m
スパン 29.00 m
形状 Box + pan
製造者 SPXS
バスタイプ Starlink V2M
フェーズステータス In Orbit
所有者/国 SPXS/US

大規模コンステレーション

Loading constellations...